Location: Paddlesworth
(51.1000°N, 1.1333°E)
Time: 13:17:56
(UTC+00:00)

Cosmos 2278 Rocket - Pass Details

Date: 11 May 2021
Orbit: 841 x 845 km, 71.0° (Epoch: 19 June)

Event Time Altitude Azimuth Distance (km) Brightness Sun altitude
Rises 22:01:09 0° 219° (SW) 3,387 5.1 -16.6°
Reaches altitude 10° 22:03:36 10° 223° (SW) 2,456 4.4 -16.8°
Maximum altitude 22:09:12 63° 304° (NW) 943 2.7 -17.2°
Drops below altitude 10° 22:14:49 10° 26° (NNE) 2,471 5.2 -17.6°
Sets 22:17:19 0° 30° (NNE) 3,410 5.9 -17.7°
